Flag for Poland Weather past 2 weeks in Kalisz, Poland

Now
51 °F

Passing clouds.


Feels Like: 50 °F
Forecast: 34 / 62 °F
Wind: 5 mph from Northeast

Location: Kalisz

Current Time: Apr 21, 2015 at 9:20:35 PM

Latest Report: Apr 21, 2015 at 8:00 PM


Visibility: 17 mi

Pressure: 30.14 "Hg

Humidity: 46%

Dew point: 31 °F

Location of KaliszLocation

Historic Weather in Kalisz — Graph

°F

Kalisz temperature yesterday

Maximum temperature yesterday: 59 °F (at 3:00 PM)
Minimum temperature yesterday: 37 °F (at 4:00 AM)
Average temperature yesterday: 47 °F

Past Weeks' High & Low Weather Summary

 TemperatureHumidityPressure
High69 °F (Apr 11, 5:00 PM)98% (Apr 7, 7:00 AM)30.55 "Hg (Apr 7, 7:00 AM)
Low29 °F (Apr 7, 6:00 AM)26% (Apr 21, 4:00 PM)29.78 "Hg (Apr 16, 2:00 AM)
Average48 °F59%30.17 "Hg
* Reported Apr 6 8:00 PM — Apr 21 8:00 PM, Kalisz, Weather by CustomWeather, © 2015

Note: Actual official high and low records may vary slightly from our data, if they occured in-between our weather recording intervals... More about our weather records

Advertising

Kalisz weather history for previous 24 hours

 ConditionsComfort  
Time TempWeatherWind HumidityBarometerVisibility
8:00 PM
Tue, Apr 21
51 °FPassing clouds.5 mph46%30.14 "Hg17 mi
7:00 PM56 °FSunny.8 mph37%30.12 "Hg19 mi
6:00 PM59 °FSunny.9 mph35%30.09 "Hg16 mi
5:00 PM65 °FPassing clouds.9 mph26%30.06 "Hg19 mi
4:00 PM65 °FPassing clouds.10 mph26%30.04 "Hg16 mi
3:00 PM64 °FPassing clouds.9 mph30%30.04 "Hg16 mi
2:00 PM65 °FSunny.9 mph31%30.05 "Hg16 mi
1:00 PM62 °FSunny.7 mph36%30.06 "Hg19 mi
12:00 PM59 °FSunny.7 mph36%30.08 "Hg25 mi
11:00 AM56 °FSunny.6 mph48%30.11 "Hg22 mi
10:00 AM53 °FSunny.7 mph51%30.14 "Hg19 mi
9:00 AM50 °FSunny.6 mph54%30.17 "Hg19 mi
8:00 AM43 °FSunny.3 mph67%30.20 "Hg16 mi
7:00 AM37 °FPassing clouds.2 mph81%30.22 "Hg9 mi
6:00 AM34 °FPassing clouds.3 mph83%30.22 "Hg8 mi
5:00 AM35 °FPassing clouds.5 mph79%30.23 "Hg6 mi
4:00 AM35 °FClear.3 mph77%30.24 "Hg7 mi
3:00 AM35 °FPassing clouds.2 mph74%30.24 "Hg7 mi
2:00 AM36 °FPassing clouds.2 mph69%30.26 "Hg10 mi
1:00 AM38 °FPassing clouds.2 mph63%30.24 "Hg8 mi
12:00 AM39 °FPassing clouds.2 mph58%30.23 "Hg8 mi
11:00 PM
Mon, Apr 20
41 °FPassing clouds.5 mph53%30.23 "Hg9 mi
10:00 PM42 °FPassing clouds.5 mph52%30.21 "Hg8 mi
9:00 PM45 °FPassing clouds.6 mph47%30.20 "Hg9 mi
Weather by CustomWeather, © 2015

See weather overviewHow to use our weather pages